#timestamp,LO_Frequency,Hit,StdDev 
1551420015.1,286047003.7,P
1551420035.8,286047003.1,N
1551420055.7,286047003.3,N
1551420075.5,286047002.2,N
1551420095.3,286047002.6,N
1551420115.2,286047002.3,N
1551420135.0,286047003.7,Y
1551420135.9,286047003.7,P
1551420155.8,286046999.7,N
1551420175.6,286047002.6,N
1551420195.4,286047002.2,N
1551420215.3,286047002.0,N
1551420235.1,286047002.0,N
1551420255.9,286047002.5,N
1551420275.7,286047002.0,N
1551420295.5,286047000.1,N
1551420315.4,286047000.0,N
1551420335.2,286047001.7,N
1551420355.0,286047002.4,N
1551420355.9,286047002.4,N
1551420375.8,286047001.8,N
1551420395.6,286047000.4,N
1551420415.5,286047001.7,N
1551420435.3,286047001.3,N
1551420455.1,286047000.0,N
1551420475.9,286047002.7,N
1551420495.7,286047001.3,N
1551420515.6,286047001.7,N
1551420535.4,286047004.2,Y
1551420555.2,286047000.0,P
1551420575.1,286047000.0,N
1551420576.0,286047000.0,N
1551420595.8,286047001.8,N
1551420615.6,286047004.6,Y
1551420635.5,286047004.1,P
1551420655.3,286047001.6,N
1551420675.2,286047002.0,N
1551420695.9,286047001.9,N
1551420715.7,286047002.5,N
1551420735.6,286047001.9,N
1551420755.4,286047001.9,N
1551420775.3,286047002.4,N
1551420795.1,286047004.1,Y
1551420815.6,286047002.7,P
1551420835.4,286047001.0,P
1551420855.3,286046997.8,P
1551420875.1,286046996.1,N
1551420876.0,286046996.1,N
1551420895.8,286046995.2,N
1551420915.7,286046996.7,N
1551420935.5,286046997.2,N
1551420955.3,286046998.3,N
1551420975.2,286047000.1,N
1551420995.0,286046994.9,N
1551420995.9,286046994.9,N
1551421015.8,286046996.1,N
1551421035.6,286046995.5,N
1551421055.4,286046999.5,N
1551421075.3,286046997.8,N
1551421095.1,286046995.0,N
1551421115.8,286046997.2,N
1551421135.7,286046996.8,N
1551421155.5,286046998.7,N
1551421175.4,286047001.1,N
1551421195.2,286046997.4,N
1551421245.1,286046997.4,E
1551421255.9,286046998.4,N
1551421275.7,286047000.2,P
1551421295.6,286047002.1,N
1551421315.4,286047001.6,N
1551421335.2,286047004.3,N
1551421355.1,286047002.0,N
1551421356.0,286047002.0,N
1551421375.8,286047002.3,N
1551421395.3,286047004.0,N
1551421415.1,286047002.6,N
1551421435.8,286047002.7,N
1551421455.7,286047000.0,N
1551421475.5,286047001.0,N
1551421495.4,286046999.9,N
1551421515.2,286047000.4,N
1551421535.0,286047000.2,N
1551421535.9,286047000.2,N
1551421555.8,286047002.1,N
1551421575.6,286047000.0,N
1551421595.5,286046999.8,N
1551421615.3,286047002.2,N
1551421635.8,286047001.7,N
1551421655.6,286047002.9,N
1551421675.4,286047002.6,N
1551421695.3,286047000.9,N
1551421715.1,286047000.3,N
1551421735.9,286046998.5,N
1551421755.7,286046999.0,N
1551421775.5,286046999.4,N
1551421795.4,286046998.9,N
1551421815.2,286047000.7,N
1551421835.0,286047000.5,N
1551421836.0,286047000.5,N
1551421855.8,286047002.0,N
1551421875.6,286046998.3,N
1551421895.5,286046997.4,N
1551421915.3,286046998.0,N
1551421935.1,286046994.9,Y
1551421955.9,286046996.0,P
1551421975.7,286046996.2,N
1551421995.6,286046995.7,N
1551422015.4,286046996.0,N
1551422035.2,286046995.1,N
1551422055.1,286046996.5,N
1551422056.0,286046996.5,N
1551422075.8,286046996.5,N
1551422095.6,286046998.7,N
1551422115.5,286046995.2,Y
1551422135.3,286046999.9,P
1551422155.2,286047000.6,N
1551422175.9,286047002.3,N
1551422195.7,286047002.5,N
1551422215.6,286047003.7,N
1551422235.4,286047006.7,N
1551422255.2,286047008.5,N
1551422275.1,286047007.8,N
1551422276.0,286047007.8,N
1551422295.8,286047009.1,N
1551422315.7,286047004.5,N
1551422335.5,286047007.5,N
1551422355.3,286047005.2,N
1551422375.2,286047007.1,N
1551422395.0,286047006.5,N
1551422395.9,286047006.5,N
1551422415.7,286047006.8,N
1551422435.6,286047007.6,N
1551422455.4,286047003.5,N
1551422475.3,286047001.9,N
1551422495.1,286047005.7,N
1551422496.0,286047005.7,N
1551422515.8,286047004.9,N
1551422535.7,286047005.0,N
1551422555.5,286047005.6,N
1551422575.3,286047003.0,N
1551422595.2,286047003.4,N
1551422615.0,286047005.7,N
1551422615.9,286047005.7,N
1551422635.8,286047007.6,N
1551422655.6,286047005.7,N
1551422675.4,286047005.9,N
1551422695.3,286047009.0,Y
1551422715.1,286047002.8,P
1551422735.9,286047001.0,N
1551422755.7,286046998.7,N
1551422775.5,286046999.6,N
1551422795.4,286046995.0,N
1551422815.2,286046997.7,N
1551422835.1,286046998.1,N
1551422836.0,286046998.1,N
1551422855.8,286047002.4,N
1551422875.6,286047000.2,N
1551422895.5,286047001.9,N
1551422915.3,286047000.4,N
1551422935.1,286047002.5,N
1551422955.9,286047000.0,N
1551422975.7,286047004.4,N
1551422995.6,286047001.9,N
1551423015.4,286047000.0,N
1551423035.2,286046998.8,N
1551423055.1,286046998.6,N
1551423056.0,286046998.6,N
1551423075.8,286046996.5,N
1551423095.7,286046995.2,N
1551423115.5,286046996.3,N
1551423135.3,286046996.3,N
1551423155.2,286046997.2,N
1551423175.9,286046997.3,N
1551423195.7,286046999.0,N
1551423215.6,286047000.7,N
1551423235.4,286046998.4,N
1551423255.3,286046998.3,N
1551423275.1,286046998.7,N
1551423276.0,286046998.7,N
1551423295.8,286046998.2,N
1551423315.7,286047000.6,N
1551423335.5,286046998.5,N
1551423355.3,286046998.4,N
1551423375.2,286046998.5,N
1551423395.0,286046999.5,N
1551423395.9,286046999.5,N
1551423415.8,286046997.5,N
1551423435.6,286047000.8,N
1551423455.4,286046996.5,N
1551423475.3,286046999.6,N
1551423495.1,286046997.9,N
1551423515.8,286047000.6,N
1551423535.7,286047004.4,N
1551423555.5,286047000.2,N
1551423575.4,286047001.0,N
1551423595.2,286047001.0,N
